| time (UTC) | temp C | wind direction | speed KPH | gust KPH | rain 1hr cm | rain 24hr cm | rain mn cm | humidity % | barometer mb |
| 20260510160053 | 10 | 183 | 4.8 | 16.1 | 0.00 | 0.00 | 0.00 | 69 | 1012.5 |
| 20260510154551 | 10 | 180 | 9.7 | 19.3 | 0.00 | 0.00 | 0.00 | 71 | 1012.7 |
| 20260510153049 | 10 | 190 | 6.4 | 16.1 | 0.00 | 0.00 | 0.00 | 71 | 1012.9 |
| 20260510151546 | 10 | 220 | 8.0 | 20.9 | 0.00 | 0.00 | 0.00 | 71 | 1013.1 |
| 20260510150045 | 10 | 194 | 9.7 | 24.1 | 0.00 | 0.00 | 0.00 | 71 | 1013.4 |
| 20260510144541 | 11 | 173 | 9.7 | 22.5 | 0.00 | 0.00 | 0.00 | 74 | 1013.7 |
| 20260510143039 | 11 | 208 | 9.7 | 24.1 | 0.00 | 0.00 | 0.00 | 73 | 1013.9 |
| 20260510141539 | 11 | 201 | 12.9 | 22.5 | 0.00 | 0.00 | 0.00 | 71 | 1014.1 |
| 20260510140038 | 12 | 193 | 14.5 | 22.5 | 0.00 | 0.00 | 0.00 | 66 | 1014.2 |
| 20260510134537 | 12 | 214 | 12.9 | 24.1 | 0.00 | 0.00 | 0.00 | 63 | 1014.2 |
| 20260510133036 | 12 | 192 | 11.3 | 24.1 | 0.00 | 0.00 | 0.00 | 63 | 1014.2 |
| 20260510131534 | 13 | 194 | 11.3 | 22.5 | 0.00 | 0.00 | 0.00 | 61 | 1014.5 |
| 20260510130032 | 13 | 215 | 11.3 | 22.5 | 0.00 | 0.00 | 0.00 | 63 | 1014.5 |
| 20260510124531 | 12 | 198 | 9.7 | 20.9 | 0.00 | 0.00 | 0.00 | 66 | 1014.8 |
| 20260510123026 | 12 | 206 | 9.7 | 24.1 | 0.00 | 0.00 | 0.00 | 64 | 1015.1 |
| 20260510121524 | 11 | 197 | 16.1 | 32.2 | 0.00 | 0.00 | 0.00 | 68 | 1015.7 |
| 20260510120021 | 11 | 223 | 11.3 | 25.7 | 0.00 | 0.00 | 0.00 | 81 | 1015.8 |
| 20260510114523 | 11 | 219 | 14.5 | 24.1 | 0.00 | 0.00 | 0.00 | 81 | 1015.8 |
| 20260510113019 | 11 | 237 | 11.3 | 20.9 | 0.00 | 0.00 | 0.00 | 80 | 1015.8 |
| 20260510111518 | 11 | 223 | 8.0 | 17.7 | 0.00 | 0.00 | 0.00 | 81 | 1016.1 |
| 20260510110015 | 11 | 238 | 9.7 | 20.9 | 0.00 | 0.00 | 0.00 | 84 | 1016.3 |
| 20260510104527 | 10 | 217 | 11.3 | 25.7 | 0.00 | 0.00 | 0.00 | 87 | 1016.5 |
| 20260510103013 | 10 | 226 | 12.9 | 22.5 | 0.00 | 0.00 | 0.00 | 90 | 1016.7 |
| 20260510101511 | 10 | 229 | 11.3 | 22.5 | 0.00 | 0.00 | 0.00 | 91 | 1016.9 |
| 20260510100008 | 10 | 228 | 11.3 | 25.7 | 0.00 | 0.00 | 0.00 | 90 | 1017.0 |
| 20260510094513 | 10 | 229 | 9.7 | 19.3 | 0.00 | 0.00 | 0.00 | 92 | 1017.1 |
| 20260510093003 | 10 | 231 | 9.7 | 16.1 | 0.00 | 0.00 | 0.00 | 93 | 1017.3 |
| 20260510091501 | 10 | 226 | 12.9 | 20.9 | 0.00 | 0.00 | 0.00 | 92 | 1017.3 |
| 20260510090059 | 10 | 250 | 11.3 | 20.9 | 0.00 | 0.00 | 0.00 | 90 | 1017.3 |
| 20260510084600 | 10 | 242 | 11.3 | 17.7 | 0.00 | 0.00 | 0.00 | 88 | 1017.5 |
| 20260510083056 | 10 | 238 | 8.0 | 16.1 | 0.00 | 0.00 | 0.00 | 90 | 1017.6 |
| 20260510081559 | 10 | 234 | 6.4 | 16.1 | 0.00 | 0.00 | 0.00 | 89 | 1017.8 |
| 20260510080052 | 11 | 236 | 8.0 | 17.7 | 0.00 | 0.00 | 0.00 | 86 | 1017.7 |
| 20260510074551 | 11 | 233 | 8.0 | 14.5 | 0.00 | 0.00 | 0.00 | 81 | 1017.8 |
| 20260510073053 | 11 | 270 | 6.4 | 14.5 | 0.00 | 0.00 | 0.00 | 76 | 1018.1 |
| 20260510071546 | 11 | 280 | 4.8 | 11.3 | 0.00 | 0.00 | 0.00 | 78 | 1018.2 |
| 20260510070047 | 11 | 275 | 4.8 | 9.7 | 0.00 | 0.00 | 0.00 | 73 | 1018.2 |
| 20260510064544 | 11 | 174 | 1.6 | 4.8 | 0.00 | 0.00 | 0.00 | 72 | 1018.4 |
| 20260510063041 | 11 | 173 | 1.6 | 3.2 | 0.00 | 0.00 | 0.00 | 73 | 1018.5 |
| 20260510061537 | 11 | 171 | 0.0 | 4.8 | 0.00 | 0.00 | 0.00 | 60 | 1018.7 |
| 20260510060034 | 10 | 164 | 1.6 | 8.0 | 0.00 | 0.00 | 0.00 | 65 | 1018.7 |
| 20260510054535 | 8 | 139 | 1.6 | 4.8 | 0.00 | 0.00 | 0.00 | 80 | 1018.7 |
| 20260510053022 | 7 | 81 | 1.6 | 4.8 | 0.00 | 0.00 | 0.00 | 88 | 1018.8 |
| 20260510051529 | 6 | 81 | 0.0 | 1.6 | 0.00 | 0.00 | 0.00 | 87 | 1019.0 |
| 20260510050014 | 5 | 81 | 0.0 | 1.6 | 0.00 | 0.00 | 0.00 | 86 | 1019.2 |
| 20260510044510 | 3 | 81 | 0.0 | 3.2 | 0.00 | 0.00 | 0.00 | 86 | 1019.3 |
| 20260510043014 | 1 | 81 | 0.0 | 3.2 | 0.00 | 0.00 | 0.00 | 89 | 1019.5 |
| 20260510041502 | 0 | 81 | 0.0 | 4.8 | 0.00 | 0.00 | 0.00 | 89 | 1019.7 |
| 20260510033104 | -1 | 74 | 0.0 | 1.6 | 0.00 | 0.00 | 0.00 | 91 | 1020.0 |
| 20260510031554 | -2 | 74 | 0.0 | 3.2 | 0.00 | 0.00 | 0.00 | 92 | 1020.3 |
| 20260510023022 | -1 | 74 | 0.0 | 0.0 | 0.00 | 0.00 | 0.00 | 92 | 1020.6 |
| 20260510021529 | -1 | 74 | 0.0 | 1.6 | 0.00 | 0.00 | 0.00 | 93 | 1020.9 |
| 20260510020019 | -1 | 74 | 0.0 | 4.8 | 0.00 | 0.00 | 0.00 | 93 | 1021.0 |
| 20260510014517 | -1 | 74 | 1.6 | 3.2 | 0.00 | 0.00 | 0.00 | 93 | 1021.0 |
| 20260510013014 | -1 | 74 | 0.0 | 3.2 | 0.00 | 0.00 | 0.00 | 93 | 1021.1 |
| 20260510011513 | -1 | 74 | 1.6 | 4.8 | 0.00 | 0.00 | 0.00 | 94 | 1021.4 |
| 20260510010012 | -1 | 71 | 0.0 | 4.8 | 0.00 | 0.00 | 0.00 | 93 | 1021.5 |
| 20260510004508 | 0 | 71 | 1.6 | 4.8 | 0.00 | 0.00 | 0.00 | 93 | 1021.7 |
| 20260510003006 | 0 | 71 | 0.0 | 0.0 | 0.00 | 0.00 | 0.00 | 93 | 1021.7 |
| 20260510001507 | 0 | 71 | 0.0 | 3.2 | 0.00 | 0.00 | 0.00 | 93 | 1021.7 |
| 20260510000006 | 0 | 71 | 0.0 | 3.2 | 0.00 | 0.00 | 0.00 | 93 | 1021.8 |
| 20260509234559 | 0 | 71 | 1.6 | 3.2 | 0.00 | 0.00 | 0.00 | 93 | 1021.8 |
| 20260509233057 | 1 | 71 | 1.6 | 4.8 | 0.00 | 0.00 | 0.00 | 94 | 1021.9 |
| 20260509231607 | 1 | 71 | 1.6 | 4.8 | 0.00 | 0.00 | 0.00 | 96 | 1022.1 |
| 20260509230053 | 1 | 71 | 1.6 | 6.4 | 0.00 | 0.00 | 0.00 | 96 | 1022.2 |
| 20260509224551 | 1 | 71 | 1.6 | 4.8 | 0.00 | 0.00 | 0.00 | 96 | 1022.3 |
| 20260509223053 | 1 | 71 | 1.6 | 6.4 | 0.00 | 0.00 | 0.00 | 97 | 1022.4 |
| 20260509221548 | 1 | 81 | 3.2 | 6.4 | 0.00 | 0.00 | 0.00 | 98 | 1022.6 |
| 20260509220046 | 1 | 81 | 1.6 | 4.8 | 0.00 | 0.00 | 0.00 | 97 | 1022.7 |
| 20260509214542 | 2 | 81 | 0.0 | 1.6 | 0.00 | 0.00 | 0.00 | 96 | 1022.8 |
| 20260509213040 | 2 | 81 | 0.0 | 1.6 | 0.00 | 0.00 | 0.00 | 96 | 1022.8 |
| 20260509211540 | 2 | 81 | 1.6 | 4.8 | 0.00 | 0.00 | 0.00 | 95 | 1023.0 |
| 20260509210048 | 2 | 81 | 1.6 | 4.8 | 0.00 | 0.00 | 0.00 | 93 | 1023.1 |
| 20260509204532 | 3 | 81 | 1.6 | 3.2 | 0.00 | 0.00 | 0.00 | 92 | 1023.0 |
| 20260509203034 | 4 | 81 | 0.0 | 0.0 | 0.00 | 0.00 | 0.00 | 90 | 1023.2 |
| 20260509201531 | 5 | 81 | 0.0 | 0.0 | 0.00 | 0.00 | 0.00 | 88 | 1023.3 |
| 20260509200032 | 6 | 81 | 0.0 | 0.0 | 0.00 | 0.00 | 0.00 | 86 | 1023.5 |
| 20260509194532 | 6 | 81 | 0.0 | 1.6 | 0.00 | 0.00 | 0.00 | 84 | 1023.5 |
| 20260509193028 | 7 | 81 | 0.0 | 3.2 | 0.00 | 0.00 | 0.00 | 83 | 1023.6 |
| 20260509191529 | 7 | 81 | 1.6 | 4.8 | 0.00 | 0.00 | 0.00 | 82 | 1023.5 |
| 20260509190035 | 7 | 73 | 3.2 | 9.7 | 0.00 | 0.00 | 0.00 | 79 | 1023.5 |
| 20260509184535 | 8 | 90 | 1.6 | 8.0 | 0.00 | 0.00 | 0.00 | 75 | 1023.4 |
| 20260509183027 | 9 | 78 | 4.8 | 16.1 | 0.00 | 0.00 | 0.00 | 72 | 1023.4 |
| 20260509181527 | 10 | 71 | 4.8 | 14.5 | 0.00 | 0.00 | 0.00 | 69 | 1023.2 |
| 20260509180026 | 10 | 75 | 4.8 | 9.7 | 0.00 | 0.00 | 0.00 | 67 | 1023.2 |
| 20260509174525 | 11 | 74 | 3.2 | 12.9 | 0.00 | 0.00 | 0.00 | 65 | 1023.2 |
| 20260509173052 | 11 | 65 | 6.4 | 16.1 | 0.00 | 0.00 | 0.00 | 61 | 1023.3 |
| 20260509171529 | 12 | 44 | 6.4 | 16.1 | 0.00 | 0.00 | 0.00 | 59 | 1023.3 |
| 20260509170022 | 12 | 61 | 8.0 | 20.9 | 0.00 | 0.00 | 0.00 | 53 | 1023.5 |
| 20260509164521 | 13 | 20 | 11.3 | 22.5 | 0.00 | 0.00 | 0.00 | 47 | 1023.5 |
| 20260509163023 | 13 | 78 | 9.7 | 20.9 | 0.00 | 0.00 | 0.00 | 49 | 1023.6 |
| 20260509161517 | 15 | 80 | 9.7 | 19.3 | 0.00 | 0.00 | 0.00 | 53 | 1023.7 |